Weather Roundup
Issued by NWS Corpus Christi, TX

Home | Current Version | Previous Version | Text Only | Print | Product List | Glossary On
Versions: 1 2 3 4 5 6 7 8 9 10 11 12 13 14 15 16 17 18 19 20 21 22 23 24 25 26 27 28 29 30 31 32 33 34 35 36 37 38 39 40 41 42 43 44 45 46 47 48 49 50
000
ASUS44 KCRP 251210
HRRCRP

SOUTH TEXAS REGIONAL WEATHER ROUNDUP
NATIONAL WEATHER SERVICE CORPUS CHRISTI TX
600 AM CST THU DEC 25 2014


TXZ229>244-251300-
...CORPUS CHRISTI AREA OBSERVATIONS...

CITY           SKY/WX    TMP DP  RH WIND       PRES   REMARKS
CORPUS CHRISTI PTCLDY    37  30  75 SW8       30.13S
NAS CORPUS CHR PTCLDY    42  37  82 SW8       30.13S
ROCKPORT       PTCLDY    41  37  86 S6        30.12S
KINGSVILLE NAS PTCLDY    36  32  85 S5        30.13F
ALICE          PTCLDY    37  31  78 SW6       30.11F
FALFURRIAS     CLEAR     33  29  84 S3        30.14R
$$

...VICTORIA AREA OBSERVATIONS...

CITY           SKY/WX    TMP DP  RH WIND       PRES   REMARKS
VICTORIA       CLEAR     36  32  85 CALM      30.11F
BEEVILLE       FAIR      39  33  81 SW5       30.11S
PLEASANTON     CLEAR     30  27  90 CALM      30.11R
SAN ANTONIO    CLEAR     31  26  82 NW5       30.08R
$$

...LAREDO AREA OBSERVATIONS...

CITY           SKY/WX    TMP DP  RH WIND       PRES   REMARKS
LAREDO         NOT AVBL
COTULLA        CLEAR     35  25  66 SE6       30.07F
DEL RIO        CLEAR     35  23  61 E8        29.99F
MCALLEN        PTCLDY    40  35  83 SE3       30.16R
HEBBRONVILLE   PTCLDY    38  28  66 S7        30.11S
$$

...OTHER TEXAS OBSERVATIONS...

CITY           SKY/WX    TMP DP  RH WIND       PRES   REMARKS
BROWNSVILLE    CLEAR     41  37  86 CALM      30.16S
HOUSTON        CLEAR     36  34  92 S3        30.13S
COL. STATION   PTCLDY    36  30  79 SE8       30.09S
AUSTIN         PTCLDY    29  27  92 CALM      30.06S
WACO           CLEAR     39  30  70 S12       30.04R WCI  32
FORT WORTH     PTCLDY    36  28  73 S12       29.97F WCI  28
WICHITA FALLS  PTCLDY    37  25  61 S14       29.85F WCI  28
LUBBOCK        CLOUDY    38  21  50 SW18G29   29.72F WCI  28
EL PASO        CLOUDY    34   9  35 S5        29.83F
$$

...MARINE OBSERVATIONS...

STATION/POSITION TIME  SKY/WX   TEMP    WIND        PRES    VSBY  WAVE   SWELL
                                AIR SEA DIR/SP/G                  HT/PER HT/PER
                 (UTC)          (F)     (DEG/KT/KT) (MB)    (MI)  (FT/S) (FT/S)
PORT ARANSAS     1200            58 59  170/ 12/ 13 1020.4R
BUOY 90 E PORT A 1200            60 71  150/  6/  8 1021.0R         1/ 4
BUOY 45 SE BAFFI 1200            61 72  180/ 12/ 16 1020.3R         1/ 4
BUOY 200 E PT IS 1200            61 74   90/  6/  8 1021.4R         4/ 7   3/ 7
BUOY 15 E GALVES 1200            56 59  210/  2/  4 1020.6R         1/ 5
$$


USA.gov is the U.S. government's official web portal to all federal, state and local government web resources and services.